This is the latest recevied weather packets stored in our database for station/object N0QV. If no packets are shown the sender has not sent any weather packets the latest 10 day(s).
| Time | Temp. | Humidity | Pressure | Rain* | Wind** | Luminosity | Snow |
|---|---|---|---|---|---|---|---|
| 1777881182 | 12.22° C | 51% | 1000.4 hPa | 0 mm | - | 0 W/m² | - |
| 1777880879 | 11.67° C | 53% | 1000.6 hPa | 0 mm | - | 0 W/m² | - |
| 1777880577 | 11.67° C | 53% | 1000.9 hPa | 0 mm | - | 0 W/m² | - |
| 1777880275 | 11.11° C | 55% | 1000.7 hPa | 0 mm | - | 0 W/m² | - |
| 1777879973 | 11.67° C | 54% | 1001.2 hPa | 0 mm | - | 0 W/m² | - |
| 1777879671 | 11.67° C | 52% | 1001.3 hPa | 0 mm | - | 0 W/m² | - |
| 1777879367 | 11.67° C | 54% | 1001.2 hPa | 0 mm | - | 0 W/m² | - |
| 1777879064 | 11.11° C | 53% | 1001.4 hPa | 0 mm | - | 0 W/m² | - |
| 1777878761 | 11.67° C | 52% | 1001.5 hPa | 0 mm | - | 0 W/m² | - |
| 1777878459 | 11.67° C | 51% | 1001.5 hPa | 0 mm | - | 0 W/m² | - |
| 1777878155 | 11.67° C | 50% | 1001.9 hPa | 0 mm | - | 0 W/m² | - |
| 1777877852 | 11.67° C | 51% | 1001.5 hPa | 0 mm | - | 0 W/m² | - |
| 1777877549 | 11.67° C | 51% | 1001.9 hPa | 0 mm | - | 0 W/m² | - |
| 1777877244 | 11.67° C | 51% | 1001.8 hPa | 0 mm | - | 0 W/m² | - |
| 1777876942 | 11.11° C | 51% | 1001.9 hPa | 0 mm | - | 0 W/m² | - |
| 1777876640 | 10.56° C | 52% | 1001.8 hPa | 0 mm | - | 0 W/m² | - |
| 1777876338 | 10.56° C | 55% | 1002.2 hPa | 0 mm | - | 0 W/m² | - |
| 1777876034 | 10.56° C | 54% | 1002.3 hPa | 0 mm | - | 0 W/m² | - |
| 1777875729 | 10.56° C | 52% | 1002.4 hPa | 0 mm | - | 0 W/m² | - |
| 1777875426 | 10° C | 51% | 1002.2 hPa | 0 mm | - | 0 W/m² | - |
| 1777875123 | 10° C | 51% | 1002.5 hPa | 0 mm | - | 0 W/m² | - |
| 1777874820 | 10° C | 53% | 1002.3 hPa | 0 mm | - | 0 W/m² | - |
| 1777874515 | 10° C | 51% | 1002.6 hPa | 0 mm | - | 0 W/m² | - |
| 1777874214 | 10.56° C | 50% | 1002.6 hPa | 0 mm | - | 0 W/m² | - |
| 1777873910 | 10.56° C | 51% | 1002.6 hPa | 0 mm | - | 0 W/m² | - |
* Rain latest hour (hover to see other rain measurements)
** Current wind speed in m/s (hover to see current wind gust speed)